Change the Weather History Date:

Friday, October 5, 2012

  Actual Average Record
Temperature  
Mean Temperature 32 °F -  
Max Temperature 48 °F - - ()
Min Temperature 17 °F - - ()
Degree Days  
Heating Degree Days 32    
Moisture  
Dew Point 17 °F    
Average Humidity 63    
Maximum Humidity 93    
Minimum Humidity 22    
Precipitation  
Precipitation 0.00 in - - ()
Sea Level Pressure  
Sea Level Pressure 30.48 in    
Wind  
Wind Speed 2 mph ()    
Max Wind Speed 4 mph    
Max Gust Speed -    
T = Trace of Precipitation, MM = Missing Value Source: Averaged Metar Reports

Daily Weather History Graph

Daily Weather History Graph

Search for Another Location

Airport or City:

Trip Planner

Search our weather history database for the weather conditions in past years. The results will help you decide how hot, cold, wet, or windy it might be!

Date:

Astronomy

Oct. 05, 2012 Rise Set
Actual Time 7:50 AM MDT 7:09 PM MDT
Civil Twilight 7:17 AM MDT 7:42 PM MDT
Nautical Twilight 6:38 AM MDT 8:21 PM MDT
Astronomical Twilight 5:59 AM MDT 8:59 PM MDT
Moon 10:04 PM MDT (10/5) 1:33 PM MDT (10/5)
Length of Visible Light 12h 25m
Length of Day
11h 19m
Waning Gibbous, 73% of the Moon is Illuminated
Oct 5
Waning Gibbous
Oct 8
Last Quarter
Oct 15
New
Oct 21
First Quarter
Oct 29
Full

Hourly Weather History & Observations

Time (MDT) Temp. Windchill Dew Point Humidity Pressure Visibility Wind Dir Wind Speed Gust Speed Precip Events Conditions
12:00 AM 26.6 °F 22.6 °F 19.0 °F 73% 30.47 in - ENE 3.5 mph - N/A   Unknown
1:00 AM 24.1 °F - 18.9 °F 80% 30.48 in - Calm Calm - N/A   Unknown
2:00 AM 22.8 °F - 17.6 °F 80% 30.49 in - Calm Calm - N/A   Unknown
3:00 AM 22.1 °F - 18.3 °F 85% 30.50 in - West 1.2 mph - N/A   Unknown
4:00 AM 20.8 °F - 17.1 °F 85% 30.50 in - Calm Calm - N/A   Unknown
5:00 AM 19.6 °F - 16.9 °F 89% 30.51 in - West 1.2 mph - N/A   Unknown
6:00 AM 19.0 °F - 16.5 °F 90% 30.55 in - WNW 1.2 mph - N/A   Unknown
8:00 AM 17.6 °F - 15.8 °F 93% 30.58 in - West 1.2 mph - N/A   Unknown
9:00 AM 21.2 °F - 17.4 °F 85% 30.58 in - South 2.3 mph - N/A   Unknown
10:00 AM 24.8 °F 20.5 °F 16.5 °F 71% 30.58 in - SW 3.5 mph - N/A   Unknown
11:00 AM 31.8 °F - 18.5 °F 58% 30.55 in - SSW 2.3 mph - N/A   Unknown
12:00 PM 36.3 °F - 18.5 °F 48% 30.52 in - SW 2.3 mph - N/A   Unknown
1:00 PM 40.3 °F - 15.8 °F 37% 30.49 in - South 2.3 mph - N/A   Unknown
2:00 PM 44.1 °F 42.5 °F 14.4 °F 30% 30.46 in - SE 3.5 mph - N/A   Unknown
3:00 PM 47.1 °F - 13.5 °F 26% 30.43 in - SSW 3.5 mph - N/A   Unknown
4:00 PM 48.4 °F - 12.2 °F 23% 30.41 in - South 3.5 mph - N/A   Unknown
5:00 PM 48.4 °F - 11.3 °F 22% 30.40 in - ESE 3.5 mph - N/A   Unknown
6:00 PM 42.4 °F 40.7 °F 14.2 °F 32% 30.42 in - NNW 3.5 mph - N/A   Unknown
7:00 PM 37.2 °F - 17.6 °F 45% 30.43 in - NE 2.3 mph - N/A   Unknown
8:00 PM 30.6 °F 27.1 °F 19.9 °F 65% 30.45 in - ENE 3.5 mph - N/A   Unknown
9:00 PM 26.8 °F - 18.9 °F 72% 30.46 in - NE 1.2 mph - N/A   Unknown
10:00 PM 25.7 °F - 19.2 °F 76% 30.44 in - Calm Calm - N/A   Unknown
11:00 PM 24.4 °F - 18.7 °F 79% 30.43 in - Calm Calm - N/A   Unknown